TimeCDT,TemperatureF,Dew PointF,Humidity,Sea Level PressureIn,VisibilityMPH,Wind Direction,Wind SpeedMPH,Gust SpeedMPH,PrecipitationIn,Events,Conditions,WindDirDegrees,DateUTC
12:21 AM,33.8,28.4,81,29.74,10.0,NW,15.0,21.9,N/A,,Overcast,320,2013-03-18 05:21:00
12:53 AM,34.0,26.1,73,29.81,10.0,NNW,24.2,34.5,N/A,,Overcast,330,2013-03-18 05:53:00
1:53 AM,32.0,26.1,79,29.83,10.0,WNW,8.1,-,N/A,,Mostly Cloudy,290,2013-03-18 06:53:00
2:53 AM,30.9,24.1,76,29.85,10.0,NW,15.0,-,N/A,,Partly Cloudy,310,2013-03-18 07:53:00
3:53 AM,30.0,19.9,66,29.86,10.0,NNW,12.7,-,N/A,,Clear,330,2013-03-18 08:53:00
4:53 AM,27.0,19.9,75,29.87,10.0,NW,8.1,-,N/A,,Clear,310,2013-03-18 09:53:00
5:43 AM,26.6,21.2,80,29.82,10.0,NW,3.5,-,N/A,,Mostly Cloudy,310,2013-03-18 10:43:00
5:53 AM,27.0,21.9,81,29.88,10.0,NNW,5.8,-,N/A,,Overcast,330,2013-03-18 10:53:00
6:49 AM,24.8,19.4,80,29.82,10.0,NW,5.8,-,N/A,,Scattered Clouds,310,2013-03-18 11:49:00
6:53 AM,24.1,19.0,81,29.89,10.0,NW,5.8,-,N/A,,Partly Cloudy,310,2013-03-18 11:53:00
7:53 AM,19.9,16.0,85,29.92,10.0,Calm,Calm,-,N/A,,Clear,0,2013-03-18 12:53:00
8:53 AM,26.1,18.0,71,29.93,10.0,North,13.8,-,N/A,,Clear,350,2013-03-18 13:53:00
9:53 AM,26.1,17.1,69,29.96,10.0,North,11.5,-,N/A,,Overcast,350,2013-03-18 14:53:00
10:53 AM,30.0,19.0,64,29.98,10.0,NW,23.0,28.8,N/A,,Partly Cloudy,320,2013-03-18 15:53:00
11:20 AM,30.2,19.4,64,29.92,10.0,NW,26.5,34.5,N/A,,Mostly Cloudy,320,2013-03-18 16:20:00
11:40 AM,30.2,17.6,60,29.93,10.0,NW,24.2,35.7,N/A,,Scattered Clouds,320,2013-03-18 16:40:00
11:53 AM,30.9,18.0,59,29.99,10.0,NW,26.5,33.4,N/A,,Partly Cloudy,320,2013-03-18 16:53:00
12:53 PM,35.1,16.0,46,29.99,10.0,NW,24.2,31.1,N/A,,Clear,310,2013-03-18 17:53:00
1:53 PM,37.0,12.0,36,29.99,10.0,NW,23.0,33.4,N/A,,Clear,310,2013-03-18 18:53:00
2:53 PM,39.0,10.9,32,29.99,10.0,NW,25.3,36.8,N/A,,Clear,320,2013-03-18 19:53:00
3:53 PM,39.9,9.0,28,29.98,10.0,NW,23.0,35.7,N/A,,Clear,310,2013-03-18 20:53:00
4:53 PM,39.9,8.1,27,29.99,10.0,NW,17.3,29.9,N/A,,Clear,310,2013-03-18 21:53:00
5:53 PM,39.9,5.0,23,29.99,10.0,NW,17.3,-,N/A,,Clear,320,2013-03-18 22:53:00
6:53 PM,37.9,1.9,22,30.00,10.0,NNW,19.6,-,N/A,,Clear,340,2013-03-18 23:53:00
7:53 PM,30.0,3.9,33,30.04,10.0,North,8.1,-,N/A,,Clear,350,2013-03-19 00:53:00
8:53 PM,32.0,5.0,32,30.05,10.0,NNE,8.1,-,N/A,,Overcast,20,2013-03-19 01:53:00
9:53 PM,32.0,5.0,32,30.06,10.0,NNE,4.6,-,N/A,,Overcast,20,2013-03-19 02:53:00
10:53 PM,30.9,6.1,35,30.06,10.0,Calm,Calm,-,N/A,,Overcast,0,2013-03-19 03:53:00
11:53 PM,30.0,8.1,40,30.08,10.0,Calm,Calm,-,N/A,,Overcast,0,2013-03-19 04:53:00